Location: Arran
(51.9410°N, 101.7372°W)
Time: 13:09:10
(UTC+00:00)

BlueWalker 3 - Pass Details

Date: 27 November 2022
Orbit: 499 x 517 km, 53.2° (Epoch: 30 January)

Event Time Altitude Azimuth Distance (km) Brightness Sun altitude
Rises 00:07:00 0° 225° (SW) 2,622 6.8 -12.4°
Reaches altitude 10° 00:09:17 10° 218° (SW) 1,735 5.5 -12.7°
Maximum altitude 00:12:57 39° 148° (SSE) 775 2.7 -13.3°
Enters shadow 00:15:01 22° 92° (E) 1,164 3.2 -13.6°
